Regional Weather Roundup
Issued by NWS

Home | Current Version | Previous Version | Text Only | Print | Product List | Glossary Off
Versions: 1 2 3 4 5 6 7 8 9 10 11 12 13 14 15 16 17 18 19 20 21 22 23 24 25 26 27 28 29 30 31 32 33 34 35 36 37 38 39 40 41 42 43 44 45 46 47 48 49 50

000
ASUS45 KPSR 221410
RWRAZ

ARIZONA REGIONAL HOURLY WEATHER ROUNDUP
NATIONAL WEATHER SERVICE PHOENIX AZ
700 AM MST MON SEP 22 2014

NOTE: FAIR INDICATES FEW OR NO CLOUDS BELOW 12,000 FEET WITH NO
SIGNIFICANT WEATHER AND/OR OBSTRUCTIONS TO VISIBILITY.

AZZ001>003-036-221500-
NORTHWEST ARIZONA

CITY           SKY/WX    TMP DP  RH WIND       PRES   REMARKS
BULLHEAD CITY  CLEAR     75  45  33 CALM      29.94R
KINGMAN        CLEAR     61  42  49 SW5       30.10R
$$

AZZ004>008-015-016-018-221500-
NORTH CENTRAL ARIZONA

CITY           SKY/WX    TMP DP  RH WIND       PRES   REMARKS
GRAND CANYON   CLEAR     41  39  93 CALM      30.33R
PRESCOTT       PTCLDY    56  42  59 CALM      30.22R
FLAGSTAFF      CLEAR     49  46  90 CALM      30.35R
PAYSON         CLOUDY    66  55  68 E3        30.25R
PAGE           CLEAR     67  57  70 CALM      30.17R
$$

AZZ009>014-017-221500-
NORTHEAST ARIZONA

CITY           SKY/WX    TMP DP  RH WIND       PRES   REMARKS
WINSLOW        CLOUDY    62  56  80 W3        30.24R
SAINT JOHNS    CLOUDY    65  57  75 CALM      30.26R
SHOW LOW       PTCLDY    57  55  94 S7        30.34R
$$

AZZ023-221500-
GREATER PHOENIX AREA

CITY           SKY/WX    TMP DP  RH WIND       PRES   REMARKS
PHOENIX        MOCLDY    81  59  47 SE5       29.95R
BUCKEYE          N/A     73  59  60 CALM      29.96R
GLENDALE       MOCLDY    81  57  44 CALM      29.97R
LUKE AFB       PTCLDY    77  57  50 N5        29.96R
DEER VALLEY    CLOUDY    79  54  41 E3        29.97R
SCOTTSDALE     CLOUDY    79  59  50 CALM      29.99R
MESA-FALCON    MOCLDY    79  57  47 NE6       29.97R
MESA-GATEWAY   MOCLDY    79  63  57 E3        29.99R
CHANDLER       MOCLDY    79  64  61 VRB5      29.97R
$$

AZZ027-028-221500-
SOUTHWEST MARICOPA COUNTY AND PINAL COUNTY

CITY           SKY/WX    TMP DP  RH WIND       PRES   REMARKS
CASA GRANDE    MOCLDY    75  57  53 CALM      29.99R
GILA BEND      PTSUNNY   79  54  41 S5        29.95
$$

AZZ503-504-507>509-221500-
SOUTHEAST ARIZONA

CITY           SKY/WX    TMP DP  RH WIND       PRES   REMARKS
TUCSON         CLEAR     75  63  66 SE8       30.07R
DAVIS-MONTHAN  CLEAR     73  64  72 SE9       30.06R
RYAN FIELD       N/A     75  66  73 SE6       30.06R
NOGALES        CLEAR     65  61  87 CALM      30.14R
SIERRA VISTA   MOCLDY    63  63 100 S3        30.20R
DOUGLAS        CLOUDY    65  64  97 NW3       30.18R
SAFFORD        MOSUNNY   71  63  75 SE12      30.11S
$$

AZZ020-021-025-026-031-221500-
SOUTHWEST ARIZONA

CITY           SKY/WX    TMP DP  RH WIND       PRES   REMARKS
YUMA           PTCLDY    78  55  44 NE3       29.88R
$$

CAZ031-033-041-043-047-048-061-221500-
SOUTHERN CALIFORNIA

CITY           SKY/WX    TMP DP  RH WIND       PRES   REMARKS
DOWNTOWN L.A.  CLEAR     63  60  90 CALM      29.96R
L.A. AIRPORT   PTCLDY    65  62  90 CALM      29.96R
SAN DIEGO      MOCLDY    70  61  73 N3        29.98R
BURBANK        CLEAR     60  48  64 CALM      29.96S
ONTARIO        CLEAR     62  57  83 CALM      29.97R
RIVERSIDE      CLEAR     61  57  87 CALM      29.97R
PALM SPRINGS   CLEAR     77  49  37 N9        29.92R
EL CENTRO NAS  CLEAR     71  49  45 CALM      29.87R
IMPERIAL       CLEAR     75  51  43 CALM      29.86R
BLYTHE         CLEAR     72  46  39 NW3       29.91R
NEEDLES        CLEAR     76  45  33 N3        29.93R
$$

NVZ020-UTZ003-221500-
SOUTHERN NEVADA-UTAH

CITY           SKY/WX    TMP DP  RH WIND       PRES   REMARKS
LAS VEGAS      CLEAR     75  51  43 S6        29.99R
SALT LAKE CITY PTCLDY    61  55  81 S3        30.15S
$$

NMZ009-TXZ055-221500-
NEW MEXICO-WEST TEXAS

CITY           SKY/WX    TMP DP  RH WIND       PRES   REMARKS
ALBUQUERQUE    PTSUNNY   67  55  65 CALM      30.32R
EL PASO        CLOUDY    67  65  93 NW8       30.20R
$$


........................KEY........................
SKY/WX - SKY CONDITION/WEATHER
TMP    - TEMPERATURE IN FAHRENHEIT
DP     - DEW POINT IN FAHRENHEIT
RH     - RELATIVE HUMIDITY IN PERCENT
WIND   - DIRECTION AND SPEED IN MILES PER HOUR (MPH)
VRB    - VARIABLE WIND DIRECTION
PRES   - MEAN SEA LEVEL PRESSURE IN INCHES OF MERCURY
         F - FALLING PRESSURE   R - RISING PRESSURE
         S - STEADY PRESSURE
VSB    - VISIBILITY IN MILES
HX     - HEAT INDEX IN FAHRENHEIT
WCI    - WIND CHILL INDEX IN FAHRENHEIT
TC     - TEMPERATURE IN CELSIUS WHICH IS ALSO KNOWN AS
         TEMPERATURE IN CENTIGRADE
AFB    - AIR FORCE BASE
         LUKE AFB IS LUKE AIR FORCE BASE
         DAVIS-MONTHAN IS DAVIS-MONTHAN AIR FORCE BASE
NAS    - NAVAL AIR STATION
         EL CENTRO NAS IS EL CENTRO NAVAL AIR STATION
N/A    - NOT AVAILABLE



USA.gov is the U.S. government's official web portal to all federal, state and local government web resources and services.